Theta_e
314 314 314 314 313 314 314 313 312 312 312 314 315 316 316 318 318 317 317 317 316 316 316 316 316 316 316 317 317 318 319 320 321 322 323 324 324 325 328 329 329 330 331 331 331 330 330 331 332 332 333 332 332 332 333 335 336 335 335 336 337 336 336 336 336 336 335 332 329 331 334 337 337 338 339 340 342 340 338 340 341 340 340 340 338
314 314 313 313 313 313 314 313 312 312 312 313 315 316 316 316 317 317 316 315 315 315 315 315 315 315 315 316 317 318 319 319 320 321 322 322 323 324 326 327 328 329 330 331 332 330 330 330 331 332 333 332 333 332 333 334 334 335 335 335 335 335 335 335 335 336 337 335 332 330 333 336 336 336 338 340 342 341 339 340 341 341 340 340 340
313 313 313 313 313 313 313 313 312 312 312 313 315 316 316 315 316 316 315 315 315 315 315 315 315 315 315 315 316 317 318 318 319 320 321 321 322 323 325 326 327 328 329 329 330 330 330 330 331 333 332 332 333 334 335 334 333 334 335 335 335 335 334 334 335 335 336 337 335 331 332 335 334 335 337 339 341 341 339 339 340 340 340 340 340
313 313 313 313 313 313 313 313 312 312 312 312 314 316 315 315 315 315 314 314 314 314 314 314 314 315 314 314 315 316 317 318 318 319 319 320 321 322 323 325 326 328 328 328 328 330 330 329 330 332 332 332 333 333 335 335 334 334 335 335 336 335 334 334 335 335 335 336 336 333 331 333 333 334 336 337 339 339 338 338 340 340 340 340 340
313 313 313 313 312 313 313 312 312 312 312 312 314 315 314 314 314 314 314 313 313 314 314 314 314 314 314 314 314 315 315 316 317 317 318 320 320 321 322 324 325 327 328 327 328 330 330 329 330 331 331 331 332 332 333 334 334 333 333 335 335 333 332 334 335 335 335 335 336 334 332 333 333 334 335 336 337 336 335 336 339 339 340 340 340
313 312 312 313 312 313 313 312 312 311 311 312 313 315 314 314 314 314 313 313 312 313 313 313 313 313 313 313 313 313 314 315 315 315 317 318 319 320 321 323 324 325 326 327 327 329 330 329 330 329 328 328 330 330 331 333 333 333 333 334 334 332 332 335 335 335 335 334 334 335 335 335 334 333 333 335 336 335 334 336 337 338 338 340 339
313 312 312 312 312 313 312 311 311 311 311 312 313 314 314 314 313 313 313 313 313 312 312 312 312 312 312 312 312 312 313 313 312 313 314 316 318 319 320 321 322 323 325 326 327 328 328 328 329 329 327 327 328 328 329 331 332 332 332 332 332 332 333 333 334 334 334 334 334 334 334 334 334 333 333 335 336 336 335 335 335 335 335 335 336
313 312 312 312 312 313 312 311 311 311 312 313 314 314 314 313 313 313 312 312 313 313 312 312 312 312 312 311 310 311 312 311 310 310 312 313 315 318 319 320 322 323 323 324 325 326 327 327 327 328 327 328 328 327 327 327 327 329 330 330 331 331 331 332 332 332 332 333 333 333 332 333 334 334 333 334 335 335 335 334 334 333 330 330 334
313 312 312 312 312 311 310 310 311 311 312 313 314 314 314 313 313 313 312 312 313 313 312 312 311 312 312 311 310 310 311 309 307 308 310 311 312 315 318 320 321 322 322 323 324 325 326 327 328 328 328 328 328 327 326 325 324 325 328 329 329 329 329 330 331 331 331 331 331 332 333 333 333 333 333 334 335 335 335 334 334 334 332 332 335
313 312 312 312 311 310 309 310 310 311 312 313 314 314 314 313 313 313 312 312 313 313 313 311 311 311 312 311 310 310 310 308 306 307 309 309 310 312 316 319 320 321 322 322 323 323 324 326 327 327 327 327 326 325 325 324 323 323 326 326 325 326 327 328 329 330 331 331 330 330 332 333 334 334 333 333 334 334 335 334 334 335 335 334 335
312 311 311 311 311 310 309 309 309 310 311 312 313 313 313 313 313 312 312 312 312 313 313 312 312 311 311 312 311 311 310 308 307 308 309 309 310 310 314 318 319 320 321 321 322 323 323 324 325 325 326 326 326 326 325 324 323 322 324 325 323 322 325 327 328 329 330 330 330 330 332 333 333 333 332 332 333 333 334 334 333 333 334 333 333
312 311 311 311 310 309 309 309 309 310 310 311 312 312 313 313 312 312 311 312 312 313 313 313 312 312 311 312 311 311 310 308 307 309 310 311 311 310 313 317 318 320 321 321 321 322 323 323 323 324 324 325 326 327 326 325 324 322 323 324 324 322 322 324 327 328 328 329 330 330 331 332 331 332 332 332 332 332 333 334 333 333 334 333 332
311 311 311 310 310 309 309 309 309 309 310 310 311 311 311 311 311 311 311 311 311 312 313 313 313 312 312 312 311 311 309 307 308 310 311 313 313 312 313 316 317 319 320 320 321 322 322 323 322 323 323 322 324 326 326 326 325 323 323 324 326 325 322 321 326 328 328 328 328 328 328 329 330 330 330 330 329 330 331 331 331 332 333 332 331
311 311 310 309 309 309 309 308 309 309 309 310 311 311 311 310 310 310 310 310 310 311 312 313 313 312 312 311 312 311 309 307 308 310 312 314 314 312 314 316 317 318 319 319 320 321 321 322 322 323 323 322 322 323 325 326 325 325 325 325 325 325 322 322 325 328 327 326 326 326 326 327 327 327 327 327 327 328 329 329 329 329 330 329 329
311 310 310 309 309 309 309 308 309 309 309 310 310 310 310 310 310 310 309 310 310 310 312 313 313 312 312 312 312 311 309 308 308 310 312 314 314 314 315 316 317 317 318 319 319 320 320 321 322 322 322 322 322 322 323 325 325 325 325 324 323 323 323 323 326 326 325 326 326 325 325 325 325 326 326 326 326 326 326 327 327 327 328 328 328
310 310 310 309 309 309 309 308 308 309 309 310 310 310 310 309 309 309 309 309 310 311 312 312 312 312 312 312 311 311 310 308 308 310 313 314 315 315 316 317 317 317 317 318 318 318 319 319 320 322 321 321 322 322 322 324 325 324 323 321 320 321 321 322 324 324 324 325 325 324 324 324 324 325 324 324 324 324 324 325 325 326 327 327 327
310 310 310 309 308 308 308 308 308 309 309 309 309 309 309 309 309 309 309 310 310 311 312 312 312 311 311 312 311 310 310 309 308 310 313 314 315 316 316 316 317 317 316 317 317 316 315 316 318 319 320 320 320 321 322 324 324 323 321 319 318 318 318 318 319 321 322 323 323 322 322 321 321 322 322 322 323 322 323 325 325 325 326 325 326
309 310 310 309 308 308 308 308 308 308 309 308 308 308 309 309 309 309 309 309 310 311 311 312 311 312 312 311 309 308 310 309 308 310 312 313 314 316 315 316 316 316 316 316 316 315 313 314 315 316 316 317 319 320 321 322 322 321 319 318 317 316 315 315 316 317 318 318 318 318 319 319 319 320 321 321 321 321 322 323 323 323 324 324 324
309 310 310 309 308 308 307 307 308 308 308 308 308 308 308 308 309 309 309 309 309 310 311 311 311 311 311 311 309 308 309 309 308 310 312 313 314 315 315 315 315 315 315 315 315 315 313 313 314 314 315 315 317 319 321 321 321 320 318 318 317 315 314 314 314 314 315 316 316 316 316 316 317 318 318 318 319 319 319 320 319 321 323 323 322
309 309 309 309 308 308 307 307 307 307 307 307 307 307 308 308 308 308 309 309 309 310 311 311 311 311 311 310 309 308 309 309 309 310 312 313 313 314 314 314 314 313 313 314 314 315 313 312 312 313 314 314 314 316 320 321 321 320 319 319 318 316 315 314 314 314 314 314 314 314 314 314 314 315 315 316 316 316 317 318 318 319 321 321 321
309 309 309 308 308 308 307 306 307 307 307 306 306 306 307 308 308 308 308 308 309 310 311 311 311 311 310 309 309 308 308 308 308 310 312 312 312 313 314 314 313 312 312 312 312 313 312 311 311 312 313 314 313 315 318 320 320 320 320 319 318 316 314 314 313 313 312 312 312 311 311 312 312 312 313 314 314 315 316 317 317 318 320 319 318
309 309 308 308 308 308 307 307 307 306 306 306 305 305 305 305 306 307 307 308 308 310 311 311 310 311 310 308 308 308 307 307 308 309 311 312 311 311 312 312 312 312 312 311 311 311 309 308 310 311 313 313 313 314 316 318 319 318 318 318 316 315 313 312 312 311 310 310 310 309 309 309 309 309 310 310 311 312 312 313 314 315 316 315 314
308 308 308 308 308 308 308 307 307 306 306 306 305 305 305 303 302 304 306 307 309 310 311 311 310 310 309 308 308 308 307 307 308 309 310 311 310 310 309 309 310 311 311 311 311 310 308 307 309 311 312 312 313 313 314 316 316 316 315 315 313 313 313 313 312 311 309 308 308 307 307 307 307 307 307 307 308 308 308 309 309 310 310 310 310
308 308 307 307 308 308 308 308 307 307 306 306 305 304 304 302 301 302 304 306 309 310 311 310 310 309 308 308 308 307 306 306 307 308 308 309 308 307 306 306 307 309 309 308 308 307 306 306 308 311 312 312 312 312 313 314 314 313 312 312 312 313 313 313 312 310 308 307 306 306 306 306 306 306 306 305 305 305 306 305 303 302 302 300 300
308 307 307 307 308 308 308 307 307 306 306 305 305 304 303 302 302 303 305 307 309 310 310 309 309 308 307 308 308 307 307 307 307 306 306 305 304 303 303 304 304 305 305 304 304 304 305 306 308 310 310 311 312 312 312 312 312 311 310 310 311 311 311 310 309 307 306 305 305 305 304 304 305 305 304 304 305 304 304 303 301 299 297 295 294
308 307 307 307 308 307 307 307 306 306 305 304 305 304 301 303 306 307 308 309 310 310 310 308 307 307 307 309 309 307 307 308 308 307 305 303 301 300 301 301 301 300 300 301 301 302 304 305 307 309 310 310 310 310 309 310 310 310 309 308 308 308 307 306 305 304 304 304 304 304 304 304 304 304 304 305 304 304 303 302 301 300 298 297 297
308 307 307 307 307 307 307 306 306 306 305 304 305 303 301 303 308 309 309 310 309 308 308 307 306 307 308 308 308 308 308 308 309 309 307 304 301 301 301 302 302 301 301 301 301 301 302 303 304 306 307 307 307 306 306 307 308 307 306 306 305 306 305 304 303 303 302 302 302 303 303 303 303 302 302 302 301 301 300 300 299 299 299 299 299
308 308 308 308 308 307 306 306 305 304 304 305 305 303 301 303 307 309 309 310 310 308 307 307 307 308 308 308 309 309 309 309 309 309 308 307 305 305 305 305 305 304 302 302 300 299 300 301 301 302 302 302 303 304 304 304 304 303 302 301 301 301 301 301 301 301 301 300 300 300 300 299 299 299 298 299 299 299 299 299 299 299 299 299 299
309 309 308 308 308 307 307 306 305 304 305 305 305 304 301 300 305 309 309 307 307 306 307 308 307 307 307 308 308 309 309 309 309 308 308 307 307 308 307 306 304 302 300 300 300 299 299 299 299 299 298 299 299 300 301 301 301 300 300 299 299 299 299 299 299 299 299 299 299 299 299 298 298 298 298 298 298 298 299 299 299 299 298 298 298
309 309 309 309 309 307 307 307 306 304 305 305 305 305 301 297 299 306 308 305 303 303 305 307 307 306 307 307 307 308 308 308 308 307 307 306 307 307 306 304 301 299 297 298 300 299 299 299 298 298 298 298 298 298 299 299 299 299 299 298 298 298 299 299 299 299 299 299 299 299 299 299 299 299 298 298 298 298 298 298 299 298 298 298 298
310 309 309 309 309 308 307 307 306 305 305 305 305 305 303 299 298 301 305 305 302 302 304 306 305 305 306 306 306 306 306 307 307 308 307 307 307 307 306 303 300 298 297 299 300 299 299 299 298 298 299 298 298 298 298 298 298 298 298 298 299 299 299 299 299 300 300 300 300 300 300 300 299 299 299 299 298 298 298 298 298 298 297 297 297
310 310 310 309 309 307 307 307 307 305 305 306 305 304 304 303 301 300 302 304 302 301 304 305 303 303 304 304 304 304 304 304 305 306 307 307 307 307 306 303 300 298 298 300 301 300 300 300 300 300 300 299 299 299 299 299 300 299 300 300 300 300 300 300 300 300 300 300 300 300 299 299 299 299 298 299 298 298 298 298 298 298 297 297 297
310 310 310 310 309 308 307 307 307 306 305 305 305 304 303 303 303 302 301 301 300 300 302 303 302 301 303 303 303 303 302 302 302 302 303 302 302 303 303 302 300 298 299 301 302 302 302 302 301 301 301 301 300 300 300 300 300 300 300 300 300 300 300 300 300 300 300 300 300 300 299 299 299 298 298 298 298 298 298 298 298 298 297 297 297
311 311 310 310 310 309 308 307 307 306 305 305 305 305 304 303 303 303 302 301 299 300 302 303 301 300 301 301 302 302 301 301 301 301 300 300 300 299 299 299 298 298 300 302 303 302 302 302 301 301 301 301 300 300 300 300 300 300 299 299 299 300 300 300 300 300 300 300 300 300 299 299 299 299 298 298 298 298 298 298 298 298 297 297 298
311 311 310 310 310 310 309 308 307 306 305 305 305 305 304 303 302 301 302 301 301 302 305 304 301 300 300 300 301 302 302 301 301 301 300 300 299 298 298 299 299 299 301 303 302 301 301 301 301 301 300 300 300 300 300 300 300 300 300 300 300 300 300 300 300 300 300 300 299 299 299 299 298 298 298 298 298 298 298 298 298 298 298 298 298
312 312 311 310 309 309 309 309 308 307 305 306 306 305 305 304 302 300 300 301 302 304 306 306 303 301 299 299 300 301 302 302 302 301 301 301 300 299 300 302 301 301 302 302 301 301 301 301 301 301 301 301 301 301 300 301 300 300 300 300 301 301 300 300 300 300 299 299 299 299 299 299 299 299 299 299 299 299 298 298 297 297 297 297 298
312 312 312 311 310 309 309 309 308 307 305 305 306 306 305 304 303 300 299 300 302 304 306 307 305 302 300 299 299 300 301 301 302 302 302 302 301 300 302 303 303 302 301 301 301 301 301 301 301 302 302 302 302 302 302 301 301 301 301 301 301 301 301 300 300 300 300 300 300 300 300 300 300 299 299 299 299 299 299 298 298 297 296 297 297
312 312 312 312 311 310 309 309 308 307 306 305 305 306 306 305 303 302 300 299 300 302 305 306 305 304 302 301 300 299 299 300 301 301 301 302 301 301 302 304 303 301 301 301 301 301 301 302 302 302 302 302 303 302 302 302 301 301 301 301 301 300 299 299 300 300 301 301 301 300 300 300 300 299 299 298 298 298 298 299 298 298 297 297 298
312 311 311 311 311 310 310 310 309 307 306 305 305 306 306 305 304 303 301 300 299 301 303 305 305 305 305 303 301 299 299 300 301 302 302 302 302 302 303 304 303 302 302 302 302 302 302 302 302 302 303 303 303 303 302 302 302 302 301 302 301 299 299 300 301 301 301 300 300 300 300 300 300 299 299 299 298 299 298 298 298 298 298 298 297
312 311 310 310 310 310 309 309 309 308 306 305 305 305 306 306 304 303 302 302 300 300 301 303 304 305 305 304 303 301 301 302 303 303 304 303 303 303 304 304 303 302 302 302 302 303 303 303 303 303 303 303 303 303 303 303 302 302 302 302 301 300 300 301 301 301 300 300 300 299 299 299 299 299 298 298 298 298 298 297 297 297 297 297 296
312 312 311 310 310 309 309 309 309 308 307 306 305 305 306 306 305 304 303 303 302 301 301 302 303 304 304 304 302 302 302 303 303 304 304 304 304 304 304 304 303 303 303 303 303 304 304 304 303 303 303 303 303 303 303 303 303 302 302 302 302 302 302 302 302 301 300 300 299 299 299 299 298 298 298 298 297 297 297 297 296 296 296 296 296
313 313 312 310 309 308 308 309 309 308 308 307 306 306 306 306 306 304 303 303 303 303 302 302 302 303 303 303 302 301 302 303 304 304 304 304 304 304 304 304 304 304 304 303 303 304 304 304 304 303 303 303 303 303 303 303 303 303 303 303 302 302 302 302 302 301 301 300 299 299 299 298 298 298 298 297 297 297 297 297 296 296 296 296 296
313 313 312 311 309 308 308 309 309 309 308 308 307 306 306 306 306 305 304 303 303 303 303 303 303 303 303 302 301 301 302 303 304 305 305 305 304 304 304 304 304 304 304 304 304 304 304 304 304 304 304 304 303 303 303 303 303 303 303 303 303 302 302 302 301 301 301 300 299 299 299 298 298 298 297 297 297 297 297 296 296 296 296 296 295
313 313 312 311 310 309 308 309 309 309 309 308 308 307 306 306 306 305 304 304 303 303 303 304 304 304 304 303 301 300 300 302 303 304 305 305 305 305 305 304 304 304 304 304 304 304 304 304 304 304 304 304 304 304 303 303 303 303 303 303 303 302 302 302 302 301 301 300 299 299 299 298 298 297 297 297 296 296 296 296 296 295 295 294 294
313 313 312 311 311 309 308 308 309 309 309 308 308 307 306 306 306 306 305 304 304 304 304 304 304 304 305 304 302 300 300 301 303 304 304 304 305 305 305 305 304 304 304 304 304 304 305 304 304 304 304 304 304 304 304 303 303 303 303 303 303 302 302 302 302 302 301 300 299 299 298 298 297 297 297 297 296 296 296 296 295 293 293 293 293
313 313 312 311 310 309 309 308 308 309 309 309 308 308 307 306 306 306 305 305 304 304 304 305 304 304 304 305 305 303 303 303 303 304 304 305 305 305 305 305 305 304 305 304 304 305 305 305 305 305 305 305 305 305 304 304 304 303 303 303 303 303 302 302 301 300 300 299 299 298 298 297 297 297 297 297 296 295 295 294 293 292 292 291 291
313 312 312 311 311 310 310 309 309 309 309 309 309 309 308 307 306 306 306 305 305 305 305 305 306 305 305 304 305 305 305 304 304 304 305 305 305 305 305 305 305 305 305 305 305 305 305 305 305 304 305 305 306 305 304 303 303 302 302 301 302 301 301 300 300 299 299 298 298 297 297 297 296 296 295 295 295 293 292 292 292 291 290 290 289
312 312 312 312 311 311 310 309 309 309 309 309 309 309 308 308 307 307 307 306 306 306 306 306 306 306 306 305 304 304 305 304 304 304 304 305 305 305 305 305 305 305 305 305 305 306 306 306 306 305 305 306 306 305 303 302 301 301 300 300 300 300 300 300 299 299 298 297 297 296 296 295 295 294 293 293 293 292 291 291 291 290 289 288 288
313 312 312 311 311 310 310 308 307 307 308 309 309 309 308 308 308 308 308 307 307 307 307 306 305 305 306 306 305 304 304 304 304 304 304 304 305 305 305 305 306 306 306 306 306 306 306 305 305 305 305 305 304 303 302 301 300 300 300 300 300 300 300 299 298 298 298 297 296 294 294 293 292 292 291 291 291 290 290 289 289 288 287 286 286
314 313 311 310 310 310 309 308 307 306 307 308 309 309 308 309 309 308 308 308 308 307 307 307 306 305 305 305 305 305 304 304 304 304 304 304 305 305 305 306 307 307 307 306 306 306 305 304 304 304 304 303 302 301 301 300 300 300 300 299 299 299 298 298 297 297 297 296 295 294 293 292 291 291 290 290 290 289 288 287 286 285 285 285 285
314 313 312 310 310 310 309 308 308 308 307 308 308 308 308 308 309 309 309 309 309 308 308 307 307 306 305 305 305 305 305 305 305 305 305 305 304 304 305 306 307 307 306 306 306 305 304 303 302 302 301 301 301 300 300 300 300 299 299 298 297 297 297 296 296 296 296 295 294 293 292 292 291 289 289 289 288 288 287 285 284 283 284 284 285
Wind_Speed
6 5 5 5 5 6 6 9 11 12 11 11 11 11 10 8 7 7 7 8 9 10 11 11 12 12 12 12 11 11 10 10 10 11 11 10 10 10 8 8 9 10 10 11 12 14 16 17 19 18 16 16 16 15 13 11 10 10 11 10 9 10 10 8 7 6 9 12 13 14 12 8 10 11 12 10 11 13 15 15 16 17 17 16 18
6 5 5 4 5 5 6 9 11 12 12 11 10 9 8 7 7 7 8 8 10 11 11 12 12 12 12 11 10 10 9 9 9 9 10 10 10 10 10 9 8 8 9 10 10 11 14 17 17 16 16 15 14 14 13 12 11 10 11 12 13 13 11 11 10 7 7 10 13 13 10 9 11 11 11 10 9 10 12 13 15 15 15 15 15
6 5 5 4 4 5 6 9 11 12 11 10 9 8 7 7 7 8 9 10 11 12 12 12 12 11 11 10 9 8 9 8 8 8 8 9 9 10 11 11 9 8 9 10 9 9 10 12 13 13 14 14 13 13 11 11 11 11 12 13 14 14 14 14 13 10 9 9 11 14 13 11 14 12 9 10 8 9 11 12 12 13 13 13 13
7 6 5 4 4 5 7 9 11 12 12 10 8 8 7 5 7 8 9 11 12 12 12 11 11 10 9 9 8 7 8 8 8 8 8 8 9 9 9 10 9 7 7 7 7 7 9 10 10 10 10 11 11 11 10 9 11 12 12 12 13 15 15 16 15 13 11 9 9 14 15 13 14 15 10 9 9 9 10 11 11 11 10 10 10
7 6 5 4 4 5 7 10 11 12 12 10 8 8 6 4 6 8 9 11 12 12 11 10 9 9 9 9 8 7 7 7 7 7 8 8 8 8 9 9 9 6 6 6 5 5 7 9 8 7 8 10 11 10 9 9 10 11 12 11 13 15 15 14 13 13 13 11 10 12 13 12 13 14 11 11 11 11 11 12 10 9 8 8 7
7 6 4 4 4 5 7 9 11 12 11 9 8 8 6 5 6 7 8 10 11 11 10 9 9 8 8 9 8 7 7 7 8 8 8 7 7 8 8 8 8 7 6 6 5 4 5 6 6 6 8 9 10 9 7 7 9 10 11 10 11 12 13 12 11 11 12 13 12 11 9 9 11 12 11 12 12 11 12 12 9 7 6 6 5
7 6 4 4 4 4 6 9 10 11 10 8 8 8 6 5 6 7 9 9 9 10 9 8 8 8 8 9 9 8 7 8 9 9 9 8 8 8 7 8 8 7 6 6 5 5 5 5 5 6 7 7 8 7 5 5 6 6 7 9 9 9 11 11 10 10 11 12 13 12 10 8 9 12 12 11 11 12 11 9 9 8 4 4 6
7 6 4 3 4 5 7 8 9 10 9 7 8 7 5 5 6 7 8 8 8 9 9 9 9 8 8 9 9 8 6 7 10 10 8 8 8 8 8 7 8 7 7 6 6 5 7 6 6 6 6 6 6 5 5 5 4 2 3 5 6 7 9 11 12 13 13 11 12 13 12 10 10 12 14 12 11 13 11 7 8 10 10 10 9
7 5 4 3 5 7 8 9 9 9 8 7 8 7 5 4 6 7 7 8 8 8 8 10 10 8 7 8 8 7 5 8 11 10 9 9 8 8 8 7 7 7 7 7 6 5 6 5 5 6 5 6 6 5 5 5 5 2 2 2 3 3 5 7 10 14 14 12 12 12 11 12 12 12 13 11 10 11 10 7 7 8 10 11 9
7 5 4 4 6 8 8 8 9 9 7 6 7 6 6 5 6 7 7 8 8 8 8 9 9 8 8 8 8 6 5 9 12 10 9 10 9 8 7 7 7 7 7 8 7 6 5 4 4 5 6 6 7 6 6 6 6 5 3 3 3 2 1 4 7 10 13 13 13 14 11 11 11 11 12 11 9 8 7 7 8 7 7 8 7
6 5 4 5 7 8 8 8 9 8 7 7 6 6 6 7 7 7 7 8 8 8 8 8 8 8 8 8 9 8 7 11 13 9 8 10 9 8 7 6 7 7 7 7 7 6 5 3 3 3 4 6 7 7 8 8 8 8 7 6 6 4 2 3 5 8 11 12 13 14 12 10 11 11 10 11 9 7 6 6 7 7 7 7 5
6 5 5 6 8 8 8 8 9 8 8 7 7 7 7 8 8 8 8 9 9 8 8 8 8 8 8 9 10 9 9 12 12 9 7 8 9 9 7 6 6 6 5 6 7 6 4 3 3 2 4 5 5 6 8 9 9 9 9 8 8 7 5 5 5 6 9 10 11 11 10 10 11 10 8 7 7 6 4 4 4 3 4 3 3
6 6 6 7 8 7 8 8 9 9 8 8 7 7 7 7 7 8 9 9 9 8 8 8 8 8 8 9 10 9 10 13 11 9 9 8 8 7 7 7 6 6 5 4 5 5 5 4 2 1 4 4 4 5 6 8 9 9 9 9 8 8 8 7 7 7 7 9 10 9 10 10 8 7 6 5 5 4 2 1 1 0 0 2 4
6 6 7 8 7 7 8 8 9 9 8 8 7 7 7 7 7 8 9 9 9 9 9 8 8 9 8 9 11 9 11 14 12 10 11 8 4 3 4 7 7 5 4 4 4 4 5 5 3 1 1 2 3 5 5 6 8 8 8 7 5 7 8 9 9 8 7 7 8 8 9 7 5 5 5 4 3 2 1 2 1 1 2 3 4
6 7 7 8 7 7 8 8 8 8 7 7 7 7 7 8 9 10 10 10 9 9 9 9 8 9 8 9 10 10 12 15 12 10 10 6 4 2 2 6 6 5 4 3 3 2 3 4 4 2 1 1 3 6 7 6 7 7 7 6 4 5 7 8 9 9 8 7 8 9 9 7 5 5 5 4 3 1 1 1 0 1 2 3 4
7 7 7 7 7 6 7 7 7 6 6 6 6 7 8 8 9 10 10 9 8 8 9 8 7 8 8 8 10 10 11 14 12 10 8 4 3 3 1 2 3 3 3 2 1 2 3 3 3 3 2 1 1 4 7 7 7 7 7 6 5 4 3 2 4 6 8 9 9 9 8 8 7 6 5 4 3 2 2 1 2 2 2 2 3
7 6 6 6 6 6 6 6 5 5 5 5 6 7 8 8 8 8 7 7 7 7 7 7 6 7 7 8 10 9 10 13 12 10 7 5 4 4 3 1 1 2 2 1 1 2 4 2 1 3 2 1 3 4 7 7 6 7 8 7 7 7 7 6 5 5 7 9 10 9 9 8 7 6 6 5 4 3 3 4 3 3 2 0 2
6 6 6 6 6 6 5 5 5 4 4 5 6 7 7 8 8 7 6 7 7 7 7 7 6 6 5 6 8 8 9 12 11 8 7 7 6 4 3 2 3 3 3 3 3 3 4 3 3 2 2 1 3 5 7 6 6 7 8 9 10 10 10 9 10 10 11 11 11 10 9 7 6 5 4 3 2 1 3 3 2 3 3 3 0
6 6 6 5 6 5 5 6 5 5 6 6 7 8 8 8 7 6 7 7 7 6 7 7 6 5 4 5 7 8 8 10 10 6 4 6 6 4 3 3 3 3 3 4 4 3 4 4 3 2 2 2 3 5 7 7 7 8 9 9 10 10 8 7 8 10 11 11 10 9 9 8 7 6 5 4 3 2 2 1 1 2 3 4 2
6 6 6 6 6 5 6 6 5 6 7 7 7 8 8 8 7 6 6 7 7 7 7 6 5 5 4 4 6 7 6 8 8 5 3 4 5 5 5 5 4 3 4 4 3 3 4 6 5 4 2 1 2 4 6 8 8 8 8 8 9 9 8 7 8 9 11 12 12 11 11 10 10 9 8 8 7 6 5 3 3 2 2 2 2
6 6 6 6 7 6 6 6 6 6 7 7 7 7 7 7 7 7 7 7 7 7 7 6 5 4 5 5 5 6 5 5 6 5 3 4 5 6 5 5 4 4 4 4 5 5 5 6 7 7 5 3 2 4 7 9 9 9 8 7 8 10 11 10 10 11 13 14 14 14 14 14 14 14 14 13 13 12 11 9 7 5 4 4 5
6 7 7 7 7 6 6 6 6 6 6 6 7 7 7 7 8 8 8 7 7 7 7 6 5 4 4 5 4 4 4 4 4 4 5 5 6 6 5 5 5 4 4 5 6 7 7 8 9 9 8 5 3 5 7 8 8 8 7 7 10 12 12 12 12 12 13 13 13 14 14 14 15 16 17 17 16 16 16 15 13 11 10 9 8
7 7 7 7 7 7 6 6 6 6 6 6 7 7 8 9 9 9 9 8 8 7 6 5 5 4 4 4 2 2 3 4 3 4 6 6 6 6 5 6 6 5 5 6 7 7 8 9 9 9 8 8 7 7 8 9 9 10 11 12 14 14 12 11 11 11 12 12 13 13 12 12 12 13 13 14 16 17 18 18 17 16 15 13 12
7 7 7 8 7 7 7 6 6 6 6 6 7 8 9 9 9 8 8 8 8 6 5 5 5 4 4 3 1 2 3 3 2 4 7 6 6 6 5 6 8 8 8 8 8 8 8 9 9 8 9 10 11 11 12 13 14 15 15 15 14 12 10 10 10 10 11 12 12 12 11 11 11 11 11 12 15 17 18 18 18 18 18 17 16
8 8 7 8 8 7 7 7 7 6 6 6 7 8 9 8 7 6 6 6 6 5 5 4 4 4 3 1 2 2 2 3 4 5 6 6 6 6 6 7 8 10 11 11 11 11 10 10 10 10 11 12 13 14 15 16 16 17 17 15 12 10 10 11 11 11 12 12 11 12 12 11 12 13 12 12 12 12 13 14 15 15 16 17 17
9 8 7 7 7 7 7 7 7 6 6 6 6 7 7 6 5 4 5 5 5 5 4 3 3 3 1 2 3 3 3 5 6 5 6 7 8 8 9 10 11 12 13 13 13 12 11 10 10 12 13 14 16 17 17 15 14 14 14 13 12 11 11 13 13 14 13 12 12 12 12 11 12 12 10 9 8 8 8 8 9 10 10 11 13
10 9 8 8 8 8 7 7 6 6 6 6 6 5 5 4 4 4 4 4 5 4 3 2 3 2 2 3 4 4 5 6 7 7 7 7 8 9 9 10 10 10 11 11 11 13 14 14 14 14 14 15 17 17 16 13 12 12 12 13 13 13 14 14 14 14 13 13 12 12 11 10 10 10 9 9 9 9 8 8 8 8 8 8 9
11 10 9 9 8 8 8 7 7 7 6 5 5 5 4 3 4 4 3 3 3 2 2 2 3 3 5 5 6 7 7 8 8 8 8 8 7 6 6 6 5 6 8 9 9 10 11 12 11 11 12 12 13 14 13 13 13 14 14 14 15 16 16 15 14 13 13 13 13 12 12 11 11 11 11 11 11 10 9 9 9 8 7 7 8
12 11 10 10 10 9 8 8 7 7 7 5 4 4 4 4 4 3 2 2 1 1 2 1 2 4 6 5 3 4 7 8 8 9 10 9 7 4 6 7 6 6 8 9 8 7 7 7 8 9 10 11 12 12 13 13 13 13 13 13 13 14 13 14 14 13 13 13 13 13 12 12 12 12 11 12 11 10 10 10 9 9 8 8 9
14 13 12 11 11 10 9 9 8 8 7 6 5 4 3 4 5 4 4 3 3 3 3 1 3 3 4 3 1 2 5 7 8 10 10 10 7 5 6 6 6 8 11 10 7 7 8 8 9 10 10 11 11 12 12 13 13 13 13 12 13 13 13 13 13 13 13 13 13 12 12 11 11 11 11 11 11 10 10 10 9 9 9 9 9
14 14 13 12 12 11 10 9 8 9 8 7 6 5 3 3 4 6 6 4 3 4 6 6 5 4 4 5 3 3 6 7 8 9 10 9 8 6 5 5 6 8 10 7 5 7 9 9 9 10 10 11 11 12 12 13 13 13 13 13 13 13 13 13 13 12 12 12 12 11 11 11 10 10 10 10 10 10 10 9 9 10 9 9 9
15 14 13 13 13 12 12 10 9 9 9 8 7 6 5 4 4 6 7 6 4 5 8 8 7 5 6 7 6 6 7 9 9 9 9 9 8 7 6 5 5 7 7 5 5 7 8 8 9 10 10 10 11 11 11 12 12 12 12 12 12 12 12 12 11 11 12 12 11 11 11 11 11 10 10 9 9 9 9 8 8 9 9 9 9
17 15 14 13 13 14 13 12 11 11 10 9 8 7 6 5 4 6 7 6 5 7 9 10 7 6 7 9 9 8 8 9 10 10 10 9 8 8 7 5 4 6 6 4 5 7 7 8 8 8 8 9 10 10 10 10 11 11 11 11 12 12 11 11 11 11 12 11 11 11 11 10 10 10 10 9 9 9 9 9 9 8 8 8 8
22 20 18 16 14 14 14 13 12 12 11 10 9 8 7 6 4 4 7 8 7 8 10 11 10 8 8 9 10 10 9 9 9 9 9 9 8 8 7 5 5 5 3 3 4 6 7 7 8 8 8 9 9 10 10 11 11 11 12 12 13 12 12 11 11 11 11 10 10 10 9 9 9 9 9 9 9 9 9 9 9 9 8 9 9
24 23 21 20 16 14 13 14 13 12 12 11 10 9 8 6 6 6 6 8 9 10 12 12 12 11 9 9 10 11 11 10 9 8 8 8 8 8 8 7 6 5 4 3 5 6 6 7 8 9 9 10 10 11 11 12 12 12 13 12 12 11 11 11 10 10 10 10 10 10 9 9 9 9 9 9 9 9 10 10 11 10 9 8 8
22 21 21 22 20 16 14 14 13 13 13 12 11 10 9 8 7 7 8 8 9 11 12 13 13 12 11 10 10 11 12 12 11 10 9 8 8 9 8 7 7 7 6 6 6 7 7 8 9 10 11 11 11 11 12 12 12 12 12 11 11 11 11 10 10 10 10 10 10 9 9 9 9 8 8 8 8 8 8 9 10 11 9 8 8
19 19 19 20 21 19 17 15 15 14 14 13 12 11 10 10 9 8 8 9 10 11 12 13 13 13 12 12 11 11 11 12 12 12 11 10 10 11 9 6 6 7 7 7 8 8 9 10 10 11 11 11 11 11 11 11 11 11 11 10 10 10 10 10 10 10 10 9 9 8 8 8 7 7 7 7 7 7 6 6 7 7 7 7 7
17 19 19 18 18 19 18 16 16 16 15 14 14 12 11 11 11 10 10 10 11 11 12 13 14 14 14 14 13 12 11 11 11 12 12 13 14 14 11 6 6 8 8 9 10 10 11 11 11 11 11 11 11 11 11 11 11 10 10 9 9 9 10 10 9 8 8 8 7 7 7 7 6 6 6 5 5 5 5 5 5 5 5 5 7
16 18 19 17 16 17 18 17 17 17 17 16 16 14 13 13 13 12 12 12 12 12 12 13 14 15 15 15 15 14 13 12 12 12 13 13 14 13 10 7 8 9 9 10 11 11 12 12 11 11 11 11 11 10 10 10 10 9 9 9 9 10 10 9 7 7 7 6 6 6 5 5 5 5 4 4 4 3 3 4 4 4 4 5 6
15 18 20 22 22 20 19 18 17 17 17 18 17 16 15 15 14 14 14 13 13 14 14 13 14 15 15 15 17 16 15 14 13 13 12 13 13 13 11 9 10 10 11 12 12 12 12 12 12 11 11 11 10 10 10 10 10 9 9 8 9 9 8 7 6 7 6 6 6 5 4 4 4 3 3 3 2 2 1 1 1 2 3 4 4
14 15 18 24 26 24 19 19 19 18 17 18 19 18 17 16 16 16 16 15 15 15 14 14 14 15 14 16 18 19 16 14 13 13 12 12 13 12 11 11 11 11 13 14 13 12 12 13 12 12 11 11 11 10 10 10 10 9 9 8 8 8 7 6 6 6 6 6 6 5 4 4 4 3 2 3 2 1 1 1 2 2 3 4 4
12 12 13 17 22 23 20 19 20 19 18 18 19 19 18 18 17 17 17 17 16 16 16 15 15 15 15 17 20 21 17 14 13 13 13 12 12 12 12 12 13 13 13 14 14 13 13 13 13 12 12 12 12 11 11 11 10 9 9 9 8 7 7 6 6 6 6 6 6 6 5 5 5 4 4 4 4 4 4 3 3 3 4 4 5
11 12 11 12 16 20 21 21 20 20 20 19 19 19 19 19 18 18 18 18 17 17 17 16 16 16 16 18 21 22 19 15 14 13 13 13 13 13 13 14 14 14 14 14 15 15 14 13 13 13 12 12 12 12 11 11 11 10 9 9 8 8 8 7 7 7 7 7 7 8 8 7 7 6 6 6 6 5 5 5 4 4 4 5 5
12 13 13 13 14 16 17 18 19 21 21 20 20 20 20 20 19 19 19 19 19 19 18 17 17 17 16 18 21 22 20 17 16 15 14 14 14 14 15 15 16 16 16 16 17 17 16 15 14 13 13 12 12 12 12 12 11 11 10 10 10 10 9 8 8 7 7 7 7 8 9 9 8 8 8 7 7 6 6 6 5 4 4 5 6
13 13 14 15 15 14 14 16 18 19 20 21 20 20 20 21 21 20 20 20 20 20 19 19 19 18 16 18 20 21 20 18 18 17 16 15 15 15 16 17 17 18 18 18 18 18 18 16 15 14 14 14 13 13 13 12 12 11 11 10 10 10 10 9 8 7 7 7 7 8 9 9 8 8 8 8 7 7 6 5 5 4 4 5 6
13 12 13 14 16 18 20 22 23 21 20 21 21 20 20 21 22 22 22 21 21 21 21 20 20 20 19 18 19 20 21 21 20 18 18 17 17 17 17 18 18 19 20 20 20 20 18 17 16 16 15 15 14 14 14 13 13 13 12 11 10 10 11 11 10 9 8 9 8 7 8 8 8 9 9 8 7 6 5 4 4 4 5 6 6
12 12 13 14 15 17 20 22 23 22 21 21 22 21 21 21 21 22 22 22 22 22 22 21 21 21 22 21 20 20 21 22 22 20 19 19 18 18 19 19 19 19 20 21 21 20 19 18 18 17 16 15 15 15 15 14 15 17 17 16 16 16 16 16 14 11 10 9 8 8 8 7 7 8 9 8 6 5 5 4 4 5 5 6 7
13 13 14 14 14 14 15 17 18 19 19 20 21 22 22 21 21 22 22 22 23 23 22 22 22 21 22 22 22 21 21 22 22 21 20 20 19 19 20 20 20 20 20 20 20 19 18 17 17 17 16 16 16 17 16 16 18 20 22 23 24 23 21 19 16 13 11 10 9 9 9 8 7 7 8 7 6 5 4 4 4 5 5 7 8
14 14 15 15 14 13 14 15 15 15 16 18 19 20 21 21 21 22 22 22 23 23 23 23 23 23 22 23 23 22 22 23 23 23 22 21 20 19 19 19 18 19 19 18 18 18 18 18 17 17 16 17 19 20 21 21 22 24 25 26 26 24 21 19 17 14 11 9 10 10 10 9 9 8 7 7 6 5 4 4 4 6 6 7 8
13 14 15 14 13 14 17 19 20 19 19 19 17 17 19 21 21 22 22 22 22 23 23 23 23 23 23 23 23 23 23 23 23 23 23 22 21 20 19 17 16 17 17 16 16 18 19 20 20 20 20 21 23 24 23 24 25 25 25 25 23 21 19 18 16 13 10 9 10 10 10 10 9 8 6 5 4 4 4 4 5 6 7 8 8
13 13 13 14 14 15 16 17 18 19 19 18 16 17 18 20 20 21 22 22 22 22 22 22 22 22 23 23 24 24 23 23 23 22 22 22 23 22 19 17 16 17 16 15 15 18 20 22 23 23 24 24 24 23 23 25 25 24 23 22 21 20 18 16 14 11 10 9 10 10 10 10 9 7 6 5 4 4 6 7 7 7 7 8 8
Wind_Direction
242 263 275 288 301 310 325 332 330 332 328 317 321 333 340 340 340 349 354 349 347 341 335 334 332 331 327 323 323 327 332 333 331 330 327 332 342 334 309 280 266 264 267 266 260 252 248 240 230 224 221 222 227 226 220 221 222 222 226 219 208 206 204 210 221 246 272 264 262 282 288 249 214 208 210 209 214 224 218 209 214 217 217 223 231
235 254 266 281 300 309 322 329 326 327 325 315 318 327 329 330 337 344 346 343 339 332 328 326 324 324 322 316 315 322 332 337 334 333 331 333 341 339 327 310 288 273 269 269 263 254 250 241 228 218 216 218 225 230 227 222 219 220 224 221 221 221 213 212 218 225 248 251 245 251 265 265 247 221 204 209 212 210 210 209 210 214 216 216 222
230 247 260 276 297 306 319 326 323 323 322 314 312 317 317 326 337 339 340 338 333 329 326 324 323 325 322 316 316 322 330 338 338 334 336 341 340 333 330 328 316 297 282 274 266 255 250 241 230 222 219 218 219 223 224 221 222 225 225 219 219 222 219 216 215 216 227 233 236 239 238 244 256 250 216 208 211 205 206 207 209 212 214 214 217
227 240 253 273 295 306 318 325 321 319 319 311 305 308 310 326 335 334 337 334 329 327 327 328 330 331 327 321 319 324 329 332 338 340 340 344 341 332 329 329 324 314 299 287 275 262 254 246 237 227 224 224 223 220 216 211 215 221 222 219 217 218 220 221 217 215 224 228 227 235 233 230 247 258 246 219 212 213 214 209 208 212 212 212 216
222 236 250 271 295 308 320 323 320 319 316 306 301 299 295 313 328 329 334 332 331 329 328 335 340 336 333 328 321 322 327 328 334 340 339 337 334 331 329 326 324 320 310 298 284 265 255 250 243 232 230 234 233 229 223 215 216 221 222 220 220 219 216 215 217 217 224 231 230 231 234 232 241 252 256 241 222 215 221 217 207 205 204 206 214
218 233 246 272 298 312 321 322 321 320 314 301 297 291 282 299 321 327 333 337 339 335 329 336 343 337 337 338 329 319 323 334 342 344 340 333 326 327 328 325 322 322 317 302 285 268 256 250 241 230 234 238 237 236 231 224 226 229 229 228 227 223 214 205 209 216 222 232 237 230 226 233 241 244 251 256 243 223 218 215 199 189 191 197 207
217 231 243 270 295 309 318 320 321 321 315 299 291 286 283 312 330 332 335 339 344 344 339 337 335 338 343 344 340 330 328 341 346 343 343 336 326 323 321 319 319 319 318 308 287 270 261 254 237 225 227 231 235 235 225 218 228 233 236 239 237 231 222 213 211 216 220 226 234 234 229 226 234 237 237 250 258 246 231 217 195 183 193 221 226
218 231 241 267 297 311 316 320 323 324 317 299 292 288 288 323 333 334 339 340 337 340 347 342 331 332 344 347 348 345 342 347 345 345 348 341 331 323 314 311 314 312 312 309 296 273 263 256 241 231 215 197 206 216 205 197 203 233 263 255 248 241 231 224 220 221 221 223 231 235 232 226 225 230 232 238 253 253 245 234 208 196 210 231 234
219 233 242 263 299 310 313 318 322 324 318 308 307 300 294 320 328 328 338 341 332 328 340 347 336 327 336 345 349 353 358 355 350 346 344 341 337 329 314 300 300 305 305 303 297 282 270 259 246 243 213 181 192 204 207 201 192 204 286 299 264 241 228 232 232 224 221 225 233 231 227 227 225 222 225 229 240 248 247 248 238 214 210 217 214
219 235 248 269 297 305 308 313 320 322 315 311 315 306 297 307 314 319 330 337 334 325 327 341 343 336 335 340 345 352 357 352 350 344 334 330 330 329 316 298 291 294 296 295 295 290 277 264 258 252 223 204 214 220 225 226 211 207 228 248 239 227 231 260 255 238 225 224 232 232 223 225 225 219 224 231 234 241 242 239 240 231 214 206 197
221 235 251 277 293 297 300 307 314 317 311 305 309 303 296 297 301 312 322 323 325 322 318 329 339 338 335 336 345 350 341 341 348 347 328 316 313 315 310 299 293 288 285 286 289 295 288 272 271 261 229 217 225 227 227 229 223 220 225 229 229 232 263 282 280 261 240 227 227 226 218 221 229 224 227 234 231 226 226 229 234 233 235 228 190
232 242 254 278 287 288 295 304 307 311 306 298 299 300 301 302 302 309 316 315 316 316 316 319 326 334 333 331 343 350 337 337 346 350 338 312 298 299 296 290 291 288 288 286 283 293 301 282 267 262 250 232 220 223 223 221 221 223 229 237 236 239 257 273 276 268 251 234 222 213 211 225 232 222 213 221 223 214 207 225 242 237 256 278 70
241 252 261 277 281 281 291 299 303 306 301 294 294 297 299 299 296 301 310 311 311 314 316 310 313 328 330 327 336 344 337 339 346 352 349 327 295 288 276 268 274 282 298 306 295 305 318 304 276 225 260 251 221 223 225 220 222 224 231 244 243 239 251 267 267 259 250 243 233 225 227 230 222 206 201 210 222 220 174 156 252 304 4 18 68
248 258 266 273 275 279 289 298 303 304 297 290 288 287 290 293 290 293 302 302 302 309 311 304 306 320 324 325 334 337 334 340 347 350 349 346 325 293 256 252 257 264 287 309 309 319 327 324 345 61 285 269 223 222 222 218 220 218 218 231 238 238 246 256 256 246 234 232 227 223 226 223 199 193 200 194 199 213 111 100 77 64 75 71 89
255 259 264 268 270 276 289 299 304 302 296 290 285 282 286 291 290 291 293 293 293 300 301 299 307 317 319 325 334 334 332 336 342 348 355 14 54 53 252 243 245 246 262 289 309 338 346 331 341 26 99 283 228 210 201 200 206 200 195 201 206 222 235 245 248 234 215 207 207 204 201 196 186 183 179 172 175 182 130 112 110 112 94 86 107
261 255 257 263 267 275 289 302 306 302 298 293 286 286 287 288 292 295 289 285 285 287 292 296 307 315 318 327 334 335 331 331 337 351 7 40 61 28 24 209 224 234 247 266 318 13 15 345 341 22 68 27 37 170 180 188 192 182 176 180 180 177 191 230 246 226 202 191 190 185 173 167 166 158 148 147 138 111 93 66 43 56 72 92 123
260 248 246 257 265 272 285 299 303 300 301 298 293 294 294 289 295 299 290 284 285 284 289 295 300 308 318 327 333 335 330 330 338 352 11 44 48 16 22 68 102 156 186 187 118 57 40 52 50 34 32 32 62 118 155 168 170 157 148 146 141 124 109 105 113 142 156 157 156 152 148 147 145 141 135 127 111 93 84 70 45 26 21 354 161
253 240 240 254 261 265 275 289 294 292 293 296 295 296 295 292 296 297 290 289 290 283 286 293 294 300 314 324 334 341 331 329 337 348 8 41 54 36 28 51 60 95 125 122 105 71 49 70 111 89 40 52 79 101 121 129 136 141 138 133 125 115 110 109 109 112 120 126 127 126 127 125 121 119 117 107 98 86 85 80 42 2 354 336 285
247 238 244 256 259 260 267 278 284 283 285 292 295 295 294 291 293 292 283 285 288 278 277 285 292 302 313 321 338 346 335 327 335 351 23 50 61 55 53 72 62 47 73 91 94 77 44 32 59 90 65 53 81 102 116 124 130 135 137 132 122 117 116 111 107 109 111 110 105 100 94 88 83 77 67 53 34 23 38 50 2 350 353 346 347
244 242 246 254 255 253 260 271 278 280 284 291 295 297 295 288 287 288 279 277 282 281 282 289 295 304 315 321 333 342 338 328 333 351 34 47 57 68 70 76 75 56 62 74 78 81 58 33 39 66 65 46 82 112 127 128 124 126 134 134 127 125 124 116 109 109 107 102 95 87 80 75 70 66 63 59 53 49 43 34 27 21 19 31 73
240 242 245 251 248 244 253 268 276 277 281 286 293 299 299 288 281 280 278 276 276 277 283 291 290 297 315 322 329 339 345 338 338 360 50 55 61 78 80 80 85 80 76 76 68 68 59 40 41 53 55 53 87 129 137 134 128 127 130 130 132 134 130 121 113 107 101 95 88 82 77 75 73 72 73 73 69 66 63 58 54 52 59 79 97
235 239 246 251 247 240 244 261 272 275 276 283 292 299 301 294 281 272 272 278 276 271 273 279 278 286 308 316 331 348 352 350 353 24 70 81 80 84 88 96 96 84 78 80 72 64 60 52 49 52 54 61 92 127 138 142 138 132 126 124 127 126 120 115 110 101 94 89 84 78 74 73 73 74 76 79 78 76 74 73 72 75 78 81 85
234 240 245 250 247 239 240 253 264 267 269 278 290 296 301 300 285 267 261 263 266 264 262 264 270 282 300 308 335 19 14 3 11 60 88 96 97 96 95 103 102 88 78 78 72 68 69 67 63 60 63 73 91 111 129 136 130 122 119 118 115 111 108 109 107 98 92 90 86 81 77 75 74 71 73 80 85 84 82 79 76 76 77 75 72
233 240 244 246 243 236 239 250 258 260 264 276 287 298 306 303 286 264 250 249 256 257 244 242 259 276 289 301 2 71 57 38 50 91 102 105 106 101 97 102 100 89 76 72 74 80 86 85 82 84 86 89 94 103 113 118 116 116 117 113 108 105 107 109 106 100 96 92 87 84 81 80 82 82 82 86 87 85 81 78 75 73 72 71 69
226 233 240 240 235 233 241 251 257 261 264 272 285 302 312 305 284 254 234 235 243 244 235 237 262 278 278 211 125 100 89 99 100 98 100 101 99 98 98 97 92 85 81 80 78 79 84 90 95 97 96 96 99 103 106 109 115 118 115 105 99 101 104 103 101 99 96 92 88 86 84 86 93 96 94 89 85 79 75 75 74 73 71 71 69
218 225 231 232 228 230 242 249 249 250 256 267 284 304 313 303 281 249 228 227 229 232 237 252 261 258 227 148 139 133 129 131 126 116 110 104 100 99 96 85 78 79 81 79 75 74 79 90 100 101 100 101 101 100 100 102 110 115 107 94 89 93 98 100 100 97 94 93 92 90 90 94 97 97 92 85 81 77 75 77 78 77 77 75 70
215 219 223 225 224 227 236 247 249 243 244 258 279 301 313 298 271 248 227 222 225 227 238 256 245 207 160 149 150 146 142 142 141 137 130 124 118 111 97 80 73 77 80 79 81 86 87 88 91 93 95 96 94 91 90 90 94 97 93 90 94 99 100 101 100 97 96 96 95 94 96 98 98 94 89 84 79 74 72 76 79 77 78 77 73
214 219 221 221 224 225 227 236 246 244 241 252 279 305 321 295 266 258 253 255 258 252 239 224 199 171 157 152 154 158 156 150 147 147 144 144 141 128 114 104 90 88 99 103 103 102 95 89 89 90 91 93 93 93 94 94 93 93 93 96 102 104 103 100 97 96 97 98 98 99 99 97 95 93 89 84 79 74 73 75 75 72 71 72 70
213 219 221 220 222 224 225 230 237 240 242 245 261 292 314 292 264 256 266 273 277 287 276 236 153 158 164 154 148 159 154 148 153 160 158 156 148 114 103 112 107 103 118 122 119 116 110 104 105 105 103 103 102 102 102 100 97 97 97 99 102 102 100 98 96 96 99 100 101 101 100 98 95 92 89 84 79 75 73 71 71 71 71 70 68
213 218 221 221 221 219 224 230 230 232 240 242 240 255 282 272 243 225 218 218 210 224 241 194 117 133 154 151 52 72 118 138 163 172 167 162 151 119 104 108 106 111 120 120 114 115 113 108 108 108 107 107 105 104 105 104 103 102 100 98 99 99 98 98 98 99 101 102 101 101 100 100 98 94 91 89 85 80 76 73 71 71 69 69 69
214 217 218 220 219 217 222 228 225 225 233 238 240 244 243 227 220 220 220 220 218 223 213 185 169 157 134 131 127 106 118 139 163 171 173 173 168 156 140 122 110 114 119 114 106 113 112 108 108 107 105 107 106 106 107 107 106 106 104 102 101 101 101 101 102 103 104 102 101 102 101 99 98 95 93 94 93 89 85 80 77 74 70 68 67
214 218 221 218 214 214 220 225 223 223 226 230 240 248 238 210 193 201 214 224 233 223 206 193 193 191 159 143 138 134 134 137 139 146 156 162 163 164 161 146 124 121 122 115 114 119 116 112 112 112 110 111 111 111 113 112 111 112 111 109 108 105 103 104 105 106 106 104 103 102 100 98 97 96 94 93 91 89 86 82 80 78 74 71 69
209 218 225 220 211 211 216 221 221 221 222 223 229 239 245 234 199 177 186 203 223 221 209 200 196 192 181 166 153 148 148 140 134 135 139 140 144 150 155 157 146 138 137 131 123 124 123 120 121 123 121 120 119 118 118 117 116 116 114 113 112 109 107 108 107 105 105 105 104 104 103 102 102 100 97 93 88 84 81 77 73 71 68 67 65
206 215 223 220 212 210 212 216 219 219 220 223 224 226 236 245 232 190 176 179 189 201 206 205 200 192 188 179 168 161 158 152 147 145 142 141 143 142 139 139 141 149 176 194 146 134 133 132 131 130 126 125 125 124 122 121 120 119 117 116 116 115 116 115 113 110 110 109 107 105 104 102 101 99 96 93 87 82 77 72 66 62 59 57 55
208 214 217 215 215 214 213 213 216 218 217 218 221 223 225 228 229 220 200 186 183 186 193 200 203 199 193 187 182 179 177 174 170 165 160 158 153 147 146 149 153 164 188 188 155 145 143 140 136 134 131 129 127 126 126 125 123 123 123 123 123 123 123 120 117 115 113 110 106 105 102 99 97 94 93 91 88 84 79 71 61 54 52 54 50
213 213 213 211 214 218 217 212 213 216 216 215 217 221 221 218 217 219 213 200 191 188 186 187 193 198 199 197 193 189 191 193 191 188 188 184 174 174 179 177 172 177 178 167 157 152 147 143 140 136 134 132 130 129 129 129 129 129 129 129 128 126 125 123 121 118 113 110 110 109 106 102 99 95 94 92 89 86 85 81 70 59 53 51 45
213 213 214 213 212 215 217 215 211 211 212 214 216 218 218 215 213 214 213 206 200 197 190 180 180 189 199 204 204 198 196 199 199 199 203 202 199 208 218 205 175 177 175 164 160 156 150 149 147 142 139 138 135 133 133 133 132 132 133 131 128 125 124 124 124 122 120 118 118 115 109 105 102 97 94 92 87 82 82 87 87 80 69 54 37
215 215 217 215 210 209 212 212 209 206 205 210 216 218 217 214 212 212 212 207 203 204 199 186 183 189 194 197 201 203 200 198 196 197 202 205 208 220 231 216 180 179 174 162 162 161 155 153 151 148 147 145 141 140 139 138 138 140 140 136 131 131 134 133 130 130 129 125 123 121 117 113 109 103 100 96 92 88 79 69 69 76 70 48 30
218 215 214 214 215 218 217 212 206 202 202 208 214 218 218 216 213 212 211 207 203 207 207 197 193 196 194 187 187 193 198 198 197 197 199 202 207 217 222 205 183 179 171 164 165 164 159 157 157 155 154 152 149 148 147 145 146 147 147 142 138 144 150 150 145 145 144 138 135 134 132 127 121 117 117 114 106 99 87 64 45 35 27 22 19
219 216 216 217 220 224 224 217 207 202 202 206 211 216 218 217 215 213 213 209 204 206 210 206 201 201 198 187 182 187 194 200 202 200 198 198 202 210 212 201 189 182 174 171 172 170 165 163 163 162 161 160 159 158 158 157 156 156 157 156 155 159 167 167 159 156 156 152 151 152 151 149 146 145 151 146 123 95 79 47 14 357 356 357 358
220 218 220 221 219 219 220 218 212 207 205 206 210 213 216 217 217 217 215 213 209 207 209 211 208 205 200 191 187 190 196 201 204 204 201 200 201 204 205 199 192 186 180 177 178 178 173 171 171 171 171 171 171 171 170 169 168 168 170 171 168 170 175 175 170 169 172 172 173 177 180 179 186 202 199 179 179 207 227 255 286 299 314 322 327
221 216 217 217 215 214 216 217 214 211 209 208 210 212 215 217 219 219 217 215 213 211 210 212 213 208 200 196 198 201 203 207 210 206 203 204 203 203 204 201 195 191 189 186 185 185 184 182 182 182 181 181 181 181 181 181 181 181 179 177 178 181 181 180 182 186 190 193 195 198 200 203 213 224 220 209 218 234 238 244 263 283 297 307 315
225 219 215 211 210 212 215 217 214 212 211 209 208 210 213 216 218 219 219 217 217 216 214 214 215 211 201 200 207 210 210 215 221 215 207 207 207 204 205 205 201 198 198 195 193 193 193 192 192 192 191 190 190 190 191 191 190 191 191 189 189 190 191 193 196 198 204 211 214 212 213 216 221 224 221 219 225 236 242 245 253 271 290 300 309
229 221 216 215 214 214 217 220 218 213 210 209 208 207 209 213 217 218 218 218 218 220 219 219 219 214 199 194 203 209 212 217 223 220 213 211 210 209 210 211 209 206 205 203 202 201 200 201 201 200 198 198 198 199 201 201 200 201 203 202 200 201 204 208 207 203 207 215 218 215 214 216 219 222 219 214 218 230 241 244 244 255 277 293 304
232 226 222 217 208 205 215 229 232 223 210 205 206 207 208 212 216 218 218 219 220 221 222 223 225 223 208 195 196 203 211 217 220 220 218 216 215 215 217 217 215 212 210 209 208 207 207 209 209 207 208 209 207 205 206 208 208 209 211 213 213 212 209 207 207 207 209 213 217 218 215 211 212 217 215 209 213 225 234 232 228 237 264 285 294
237 233 229 223 214 211 217 226 232 228 217 209 210 210 210 212 215 217 219 220 220 221 223 224 225 227 224 214 205 205 212 218 220 221 221 221 219 220 221 221 220 218 215 214 213 213 214 216 216 215 217 218 212 208 209 210 211 213 215 218 218 212 208 213 221 224 220 215 214 215 214 208 205 207 207 203 203 210 217 223 232 247 268 283 292
244 238 234 229 224 220 219 220 223 224 221 217 215 214 212 211 212 214 217 219 220 222 224 226 225 226 227 226 221 216 215 218 220 222 222 223 224 225 225 224 223 221 219 219 218 218 218 219 220 222 224 220 213 210 210 211 214 220 222 223 223 222 224 230 234 230 224 219 211 202 202 201 197 198 201 201 198 199 209 226 242 254 268 281 290
246 244 239 232 226 223 220 217 219 223 224 222 218 215 213 213 211 211 214 216 218 220 223 226 228 228 227 227 227 224 220 220 221 223 223 225 227 227 227 226 225 223 222 220 218 217 217 218 221 223 222 217 213 213 214 214 219 224 226 228 230 232 233 231 226 219 219 221 213 198 189 182 175 180 188 190 193 204 218 235 252 266 277 283 285
248 245 241 234 227 222 219 216 216 223 231 232 225 217 215 215 214 213 215 216 217 220 222 225 227 229 228 226 226 225 225 224 224 224 225 226 226 226 227 226 224 223 222 219 215 215 217 219 220 219 214 213 217 222 224 224 227 230 232 233 232 231 229 223 216 210 210 213 210 200 189 180 180 188 194 197 205 220 232 246 264 278 282 279 275
253 248 242 233 226 225 225 222 220 221 227 231 229 223 221 221 220 219 219 219 219 221 222 224 225 227 227 226 225 225 225 226 225 224 226 226 225 226 226 223 219 221 222 217 213 214 218 221 223 221 219 221 226 229 229 230 232 234 234 230 225 220 216 211 205 201 200 201 202 199 194 190 189 190 191 196 209 222 232 246 263 274 277 274 269
258 250 240 232 230 231 228 224 222 222 223 223 224 225 227 228 227 225 223 222 223 224 223 224 225 226 226 226 226 225 225 225 225 225 225 225 225 226 224 218 218 222 221 210 206 212 219 222 224 225 225 226 228 228 228 229 231 229 224 218 211 205 202 198 194 195 198 200 200 201 202 203 200 194 192 200 209 225 247 264 271 272 273 274 270